Chongqing, China

4:31 PM CST on November 18, 2019 (GMT +0800)
Jiangbei

Weather History for ZUCK - September, 2019

Change the Weather History Date:

Saturday, September 21, 2019

  Actual Average Record
Temperature  
Mean Temperature 73 °F -  
Max Temperature 82 °F - - ()
Min Temperature 64 °F - - ()
Cooling Degree Days 8    
Growing Degree Days 23 (Base 50)    
Moisture  
Dew Point 64 °F    
Average Humidity 77    
Maximum Humidity 100    
Minimum Humidity 35    
Precipitation  
Precipitation 0.00 in - - ()
Sea Level Pressure  
Sea Level Pressure 30.13 in    
Wind  
Wind Speed 3 mph ()    
Max Wind Speed 7 mph    
Max Gust Speed -    
Visibility 4.6 miles    
Events Fog    
T = Trace of Precipitation, MM = Missing Value Source: Averaged Metar Reports

Daily Weather History Graph

Daily Weather History Graph

Search for Another Location

Airport or City:

Astronomy

Sep. 21, 2019 Rise Set
Actual Time 6:40 AM CST 6:52 PM CST
Civil Twilight 6:17 AM CST 7:15 PM CST
Nautical Twilight 5:49 AM CST 7:43 PM CST
Astronomical Twilight 5:21 AM CST 8:11 PM CST
Moon 11:30 PM CST (9/21) 12:47 PM CST (9/21)
Length of Visible Light 12h 58m
Length of Day
12h 11m
Waning Gibbous, 60% of the Moon is Illuminated
Sep 21
Waning Gibbous
Sep 22
Last Quarter
Sep 29
New
Oct 6
First Quarter
Oct 14
Full

Hourly Weather History & Observations

Time (CST) Temp. Dew Point Humidity Pressure Visibility Wind Dir Wind Speed Gust Speed Precip Events Conditions
12:00 AM 66.2 °F 64.4 °F 94% 30.15 in - SSW 2.2 mph - N/A   Clear
1:00 AM 64.4 °F 64.4 °F 100% 30.15 in 6.2 mi Calm Calm - N/A   Mostly Cloudy
2:00 AM 67 °F 65 °F 91% 30.12 in 2 mi NW 4.5 mph - -   Mist
2:00 AM 66.2 °F 66.2 °F 100% 30.15 in 6.2 mi Variable 2.2 mph - N/A   Mostly Cloudy
3:00 AM 66.2 °F 64.4 °F 94% 30.15 in 5.0 mi Calm Calm - N/A   Mostly Cloudy
4:00 AM 66.2 °F 66.2 °F 100% 30.15 in 3.1 mi Variable 2.2 mph - N/A   Mostly Cloudy
5:00 AM 66 °F 65 °F 94% 30.11 in 1 mi NW 2.2 mph - -   Mist
5:00 AM 64.4 °F 64.4 °F 100% 30.15 in 5.0 mi Calm Calm - N/A   Mostly Cloudy
6:00 AM 66.2 °F 66.2 °F 100% 30.15 in 3.7 mi Calm Calm - N/A   Mostly Cloudy
7:00 AM 66.2 °F 64.4 °F 94% 30.18 in 2.8 mi SE 2.2 mph - N/A Fog Patches of Fog
8:00 AM 68 °F 65 °F 87% 30.15 in 2 mi SSW 2.2 mph - -   Mist
8:00 AM 66.2 °F 66.2 °F 100% 30.18 in 2.2 mi ESE 4.5 mph - N/A   Scattered Clouds
9:00 AM 68.0 °F 66.2 °F 94% 30.18 in 3.1 mi SSE 4.5 mph - N/A   Scattered Clouds
10:00 AM 69.8 °F 66.2 °F 88% 30.21 in 3.1 mi ESE 4.5 mph - N/A   Scattered Clouds
11:00 AM 75 °F 64 °F 61% 30.15 in - SSE 4.5 mph - -   Mist
11:00 AM 71.6 °F 66.2 °F 83% 30.21 in 4.3 mi SE 6.7 mph - N/A   Scattered Clouds
12:00 PM 75.2 °F 66.2 °F 73% 30.18 in 4.3 mi SE 4.5 mph - N/A   Scattered Clouds
1:00 PM 77.0 °F 66.2 °F 69% 30.15 in 4.3 mi East 4.5 mph - N/A   Scattered Clouds
2:00 PM 80 °F 63 °F 47% 30.07 in 4 mi NNE 4.5 mph - -   Partly Cloudy
2:00 PM 77.0 °F 62.6 °F 61% 30.12 in 5.0 mi SW 4.5 mph - N/A   Partly Cloudy
3:00 PM 78.8 °F 62.6 °F 57% 30.09 in 6.2 mi West 4.5 mph - N/A   Partly Cloudy
4:00 PM 78.8 °F 60.8 °F 54% 30.09 in - WNW 6.7 mph - N/A   Clear
5:00 PM 82 °F 59 °F 35% 30.03 in 11 mi NNW 4.5 mph - -   Mostly Cloudy
5:00 PM 78.8 °F 62.6 °F 57% 30.09 in 6.2 mi WNW 4.5 mph - N/A   Partly Cloudy
6:00 PM 78.8 °F 62.6 °F 57% 30.09 in 6.2 mi WNW 4.5 mph - N/A   Partly Cloudy
7:00 PM 75.2 °F 57.2 °F 53% 30.09 in - NW 6.7 mph - N/A   Clear
8:00 PM 74 °F 62 °F 58% 30.06 in 7 mi NW 4.5 mph - -   Scattered Clouds
8:00 PM 73.4 °F 60.8 °F 65% 30.12 in - NW 4.5 mph - N/A   Clear
9:00 PM 71.6 °F 60.8 °F 69% 30.12 in - North 4.5 mph - N/A   Clear
11:00 PM 70 °F 62 °F 69% 30.11 in 6 mi WNW 4.5 mph - -  
11:00 PM 69.8 °F 66.2 °F 88% 30.15 in - North 6.7 mph - N/A   Clear